Date,TemperatureHighF,TemperatureAvgF,TemperatureLowF,DewpointHighF,DewpointAvgF,DewpointLowF,HumidityHigh,HumidityAvg,HumidityLow,PressureMaxIn,PressureMinIn,WindSpeedMaxMPH,WindSpeedAvgMPH,GustSpeedMaxMPH,PrecipitationSumIn
2013-2-1,73.0,63.0,53.0,55.0,49.0,40.0,74,60,49,0.00,40.00,10,6,0,0.00
2013-2-2,73.0,63.6,56.0,55.0,50.2,38.0,87,62,47,0.00,40.00,10,5,0,0.00
2013-2-3,74.0,63.6,55.0,56.0,50.2,38.0,93,65,28,0.00,40.00,8,4,0,0.00
2013-2-4,75.0,62.7,51.0,55.0,48.7,40.0,83,62,35,0.00,40.00,8,3,0,0.00
2013-2-5,78.0,66.8,54.0,63.0,58.6,52.0,94,76,54,0.00,40.00,7,3,0,0.00
2013-2-6,80.0,70.6,61.0,66.0,63.2,59.0,95,78,56,0.00,40.00,9,4,0,0.00
2013-2-7,81.0,74.2,67.0,66.0,64.1,61.0,87,71,56,0.00,40.00,9,5,0,0.00
2013-2-8,85.0,74.4,69.0,72.0,68.6,60.0,93,82,60,0.00,40.00,11,5,0,0.03
2013-2-9,79.0,70.8,64.0,69.0,63.4,58.0,95,77,65,0.00,40.00,14,7,0,0.00
2013-2-10,76.0,72.3,70.0,67.0,62.2,59.0,80,70,57,0.00,40.00,14,9,0,0.00
2013-2-11,79.0,73.5,70.0,66.0,64.4,63.0,82,73,64,0.00,40.00,10,7,0,0.00
2013-2-12,85.0,74.1,64.0,70.0,66.3,62.0,94,78,49,0.00,40.00,12,5,0,0.00
2013-2-13,85.0,76.4,69.0,73.0,70.0,66.0,95,81,65,0.00,40.00,12,6,0,0.00
2013-2-14,85.0,73.9,63.0,73.0,68.5,61.0,93,84,59,0.00,40.00,15,6,0,0.19
2013-2-15,72.0,66.4,63.0,68.0,64.6,61.0,96,93,84,0.00,40.00,8,3,0,0.91
2013-2-16,74.0,65.7,56.0,64.0,57.2,47.0,95,76,40,0.00,40.00,14,7,0,0.00
2013-2-17,57.0,52.0,46.0,47.0,30.8,21.0,75,46,27,0.00,40.00,12,7,0,0.00
2013-2-18,69.0,59.6,48.0,57.0,46.2,36.0,69,61,51,0.00,40.00,14,7,0,0.00
2013-2-19,77.0,70.7,62.0,66.0,61.7,55.0,92,73,64,0.00,40.00,11,6,0,0.00
2013-2-20,78.0,70.7,65.0,67.0,64.9,60.0,94,82,56,0.00,40.00,11,4,0,0.00
2013-2-21,80.0,73.7,67.0,68.0,66.2,64.0,91,78,61,0.00,40.00,10,5,0,0.00
2013-2-22,81.0,76.2,73.0,71.0,69.9,67.0,88,81,67,0.00,40.00,11,8,0,0.00
2013-2-23,84.0,77.4,73.0,72.0,70.6,68.0,91,79,63,0.00,40.00,11,7,0,0.00
2013-2-24,88.0,77.8,72.0,74.0,70.7,65.0,95,80,48,0.00,40.00,9,4,0,0.00
2013-2-25,85.0,77.0,69.0,73.0,69.9,66.0,93,79,59,0.00,40.00,13,5,0,0.00
2013-2-26,85.0,79.3,75.0,73.0,71.4,69.0,89,77,59,0.00,40.00,15,9,0,0.03
2013-2-27,77.0,71.1,66.0,73.0,67.0,64.0,93,87,69,0.00,40.00,7,4,0,0.36
2013-2-28,70.0,65.3,61.0,64.0,55.7,49.0,94,72,51,0.00,40.00,7,4,0,0.00